When you browse on this site, cookies collect data to enhance your experience and personalize the content and advertising you see.
Visit our Privacy Policy to learn more. By continuing to use the site, you agree to this use of cookies and data.

Météo par heure à Buenos Aires

Ce jour, 25 Septembre, Vendredi

Heure Température Précipitation Vent Pression Humidité
00:00 +19°C° 0.4 mm 4 m/s 761 mmHg 70%
01:00 +18°C° 0.4 mm 4 m/s 761 mmHg 77%
02:00 +17°C° 0 mm 5 m/s 761 mmHg 78%
03:00 +18°C° 0.2 mm 4 m/s 761 mmHg 80%
04:00 +18°C° 0.2 mm 4 m/s 761 mmHg 82%
05:00 +18°C° 0.2 mm 4 m/s 760 mmHg 84%
06:00 +18°C° 0.2 mm 4 m/s 761 mmHg 84%
07:00 +18°C° 0.2 mm 4 m/s 761 mmHg 83%
08:00 +18°C° 0.2 mm 4 m/s 761 mmHg 82%
09:00 +19°C° 0.2 mm 4 m/s 761 mmHg 81%
10:00 +19°C° 0.2 mm 4 m/s 761 mmHg 79%
11:00 +20°C° 0.2 mm 3 m/s 760 mmHg 78%
12:00 +19°C° 0.2 mm 3 m/s 760 mmHg 80%
13:00 +19°C° 0.2 mm 4 m/s 759 mmHg 81%
14:00 +18°C° 0.2 mm 4 m/s 759 mmHg 83%
15:00 +17°C° 5 mm 5 m/s 759 mmHg 87%
16:00 +17°C° 5 mm 6 m/s 758 mmHg 90%
17:00 +16°C° 5 mm 7 m/s 758 mmHg 94%
18:00 +17°C° 2.6 mm 8 m/s 759 mmHg 90%
19:00 +17°C° 2.6 mm 8 m/s 759 mmHg 86%
20:00 +17°C° 2.6 mm 9 m/s 759 mmHg 82%
21:00 +17°C° 1 mm 9 m/s 759 mmHg 83%
22:00 +17°C° 1 mm 9 m/s 758 mmHg 85%
23:00 +17°C° 1 mm 9 m/s 758 mmHg 86%

Demain, 26 Septembre, Samedi

Heure Température Précipitation Vent Pression Humidité
00:00 +17°C° 1 mm 8 m/s 757 mmHg 86%
01:00 +17°C° 1 mm 8 m/s 757 mmHg 87%
02:00 +17°C° 1 mm 7 m/s 756 mmHg 87%
03:00 +16°C° 1 mm 7 m/s 756 mmHg 87%
04:00 +16°C° 1 mm 6 m/s 755 mmHg 87%
05:00 +16°C° 1 mm 6 m/s 755 mmHg 87%
06:00 +16°C° 6 mm 6 m/s 755 mmHg 88%
07:00 +16°C° 6 mm 7 m/s 755 mmHg 90%
08:00 +16°C° 6 mm 7 m/s 755 mmHg 91%
09:00 +16°C° 1.2 mm 7 m/s 754 mmHg 90%
10:00 +16°C° 1.2 mm 7 m/s 754 mmHg 89%
11:00 +17°C° 1.2 mm 6 m/s 753 mmHg 88%
12:00 +17°C° 0.2 mm 6 m/s 753 mmHg 85%
13:00 +19°C° 0.2 mm 5 m/s 752 mmHg 83%
14:00 +19°C° 0.2 mm 5 m/s 752 mmHg 80%
15:00 +19°C° 0.2 mm 4 m/s 752 mmHg 83%
16:00 +19°C° 0.2 mm 3 m/s 751 mmHg 86%
17:00 +19°C° 0.2 mm 3 m/s 751 mmHg 89%
18:00 +18°C° 0 mm 2 m/s 751 mmHg 90%
19:00 +18°C° 0 mm 2 m/s 751 mmHg 92%
20:00 +19°C° 0 mm 1 m/s 752 mmHg 93%
21:00 +19°C° 0 mm 1 m/s 752 mmHg 94%
22:00 +19°C° 0 mm 1 m/s 752 mmHg 95%
23:00 +18°C° 0 mm 2 m/s 752 mmHg 96%

Après-demain, 27 Septembre, Dimanche

Heure Température Précipitation Vent Pression Humidité
00:00 +17°C° 0 mm 2 m/s 751 mmHg 94%
01:00 +17°C° 0 mm 3 m/s 751 mmHg 92%
02:00 +17°C° 0 mm 4 m/s 751 mmHg 90%
03:00 +15°C° 0 mm 5 m/s 751 mmHg 87%
04:00 +14°C° 0 mm 5 m/s 751 mmHg 84%
05:00 +13°C° 0 mm 5 m/s 751 mmHg 80%
06:00 +13°C° 0 mm 6 m/s 751 mmHg 77%
07:00 +14°C° 0 mm 6 m/s 751 mmHg 74%
08:00 +14°C° 0 mm 7 m/s 752 mmHg 71%
09:00 +14°C° 0 mm 7 m/s 752 mmHg 70%
10:00 +15°C° 0 mm 7 m/s 752 mmHg 69%
11:00 +15°C° 0 mm 7 m/s 752 mmHg 69%
12:00 +16°C° 0.1 mm 7 m/s 752 mmHg 69%
13:00 +16°C° 0.1 mm 7 m/s 752 mmHg 70%
14:00 +16°C° 0.1 mm 8 m/s 753 mmHg 71%
15:00 +15°C° 0 mm 8 m/s 753 mmHg 72%
16:00 +15°C° 0 mm 8 m/s 754 mmHg 72%
17:00 +13°C° 0 mm 8 m/s 754 mmHg 73%
18:00 +13°C° 0 mm 8 m/s 755 mmHg 71%
19:00 +14°C° 0 mm 7 m/s 756 mmHg 69%
20:00 +14°C° 0 mm 6 m/s 756 mmHg 67%
21:00 +14°C° 0 mm 6 m/s 757 mmHg 69%
22:00 +13°C° 0 mm 6 m/s 757 mmHg 71%
23:00 +13°C° 0 mm 6 m/s 758 mmHg 73%

28 Septembre, Lundi

Heure Température Précipitation Vent Pression Humidité
00:00 +12°C° 0 mm 5 m/s 758 mmHg 75%
01:00 +12°C° 0 mm 5 m/s 758 mmHg 76%
02:00 +10°C° 0 mm 5 m/s 757 mmHg 77%
03:00 +9°C° 0 mm 5 m/s 758 mmHg 78%
04:00 +10°C° 0 mm 4 m/s 758 mmHg 79%
05:00 +8°C° 0 mm 4 m/s 759 mmHg 80%
06:00 +10°C° 0 mm 4 m/s 759 mmHg 77%
07:00 +10°C° 0 mm 3 m/s 759 mmHg 73%
08:00 +11°C° 0 mm 3 m/s 759 mmHg 70%
09:00 +13°C° 0 mm 3 m/s 759 mmHg 62%
10:00 +16°C° 0 mm 2 m/s 759 mmHg 55%
11:00 +18°C° 0 mm 2 m/s 759 mmHg 48%
12:00 +19°C° 0 mm 2 m/s 759 mmHg 45%
13:00 +19°C° 0 mm 2 m/s 758 mmHg 42%
14:00 +20°C° 0 mm 2 m/s 758 mmHg 39%
15:00 +20°C° 0 mm 2 m/s 758 mmHg 41%
16:00 +19°C° 0 mm 2 m/s 758 mmHg 43%
17:00 +19°C° 0 mm 2 m/s 757 mmHg 44%
18:00 +19°C° 0 mm 1 m/s 757 mmHg 47%
19:00 +18°C° 0 mm 1 m/s 758 mmHg 51%
20:00 +16°C° 0 mm 1 m/s 758 mmHg 54%
21:00 +16°C° 0 mm 1 m/s 758 mmHg 55%
22:00 +15°C° 0 mm 2 m/s 758 mmHg 57%
23:00 +14°C° 0 mm 3 m/s 758 mmHg 59%

29 Septembre, Mardi

Heure Température Précipitation Vent Pression Humidité
00:00 +14°C° 0 mm 3 m/s 757 mmHg 61%
01:00 +13°C° 0 mm 4 m/s 757 mmHg 64%
02:00 +13°C° 0 mm 4 m/s 757 mmHg 66%
03:00 +13°C° 0 mm 4 m/s 757 mmHg 68%
04:00 +13°C° 0 mm 4 m/s 757 mmHg 71%
05:00 +12°C° 0 mm 4 m/s 757 mmHg 73%
06:00 +13°C° 0 mm 4 m/s 757 mmHg 69%
07:00 +14°C° 0 mm 4 m/s 757 mmHg 65%
08:00 +15°C° 0 mm 4 m/s 757 mmHg 61%
09:00 +18°C° 0 mm 4 m/s 756 mmHg 56%
10:00 +20°C° 0 mm 4 m/s 756 mmHg 51%
11:00 +22°C° 0 mm 5 m/s 756 mmHg 46%
12:00 +23°C° 0 mm 4 m/s 755 mmHg 44%
13:00 +25°C° 0 mm 4 m/s 754 mmHg 42%
14:00 +25°C° 0 mm 4 m/s 754 mmHg 40%
15:00 +25°C° 0 mm 4 m/s 753 mmHg 43%
16:00 +23°C° 0 mm 4 m/s 753 mmHg 46%
17:00 +23°C° 0 mm 4 m/s 753 mmHg 49%
18:00 +22°C° 0 mm 4 m/s 753 mmHg 54%
19:00 +21°C° 0 mm 4 m/s 753 mmHg 60%
20:00 +20°C° 0 mm 3 m/s 753 mmHg 66%
21:00 +19°C° 0 mm 3 m/s 753 mmHg 69%
22:00 +19°C° 0 mm 3 m/s 753 mmHg 72%
23:00 +19°C° 0 mm 3 m/s 754 mmHg 75%

30 Septembre, Mercredi

Heure Température Précipitation Vent Pression Humidité
00:00 +18°C° 0 mm 3 m/s 753 mmHg 77%
01:00 +18°C° 0 mm 2 m/s 752 mmHg 79%
02:00 +17°C° 0 mm 2 m/s 752 mmHg 81%
03:00 +17°C° 0 mm 2 m/s 752 mmHg 82%
04:00 +18°C° 0 mm 1 m/s 752 mmHg 83%
05:00 +18°C° 0 mm 1 m/s 752 mmHg 84%
06:00 +19°C° 0 mm 1 m/s 752 mmHg 79%
07:00 +19°C° 0 mm 2 m/s 753 mmHg 75%
08:00 +20°C° 0 mm 2 m/s 753 mmHg 70%
09:00 +21°C° 0 mm 3 m/s 753 mmHg 66%
10:00 +22°C° 0 mm 3 m/s 753 mmHg 63%
11:00 +24°C° 0 mm 3 m/s 753 mmHg 59%
12:00 +21°C° 0 mm 5 m/s 754 mmHg 55%
13:00 +18°C° 0 mm 7 m/s 754 mmHg 51%
14:00 +16°C° 0 mm 9 m/s 754 mmHg 47%
15:00 +16°C° 0 mm 7 m/s 755 mmHg 48%
16:00 +15°C° 0 mm 6 m/s 755 mmHg 50%
17:00 +15°C° 0 mm 4 m/s 756 mmHg 51%
18:00 +14°C° 0 mm 4 m/s 757 mmHg 55%
19:00 +13°C° 0 mm 4 m/s 757 mmHg 60%
20:00 +13°C° 0 mm 4 m/s 758 mmHg 64%
21:00 +12°C° 0 mm 4 m/s 758 mmHg 63%
22:00 +12°C° 0 mm 4 m/s 758 mmHg 62%
23:00 +11°C° 0 mm 4 m/s 758 mmHg 60%
Voir plus